Location: Centerville
(32.8776°N, 96.6203°W)
Time: 09:52:11
(UTC+00:00)

Cosmos 2237 - Pass Details

Date: 26 October 2021
Orbit: 845 x 856 km, 70.8° (Epoch: 08 December)

Event Time Altitude Azimuth Distance (km) Brightness Sun altitude
Rises 01:40:40 0° 240° (WSW) 3,407 8.3 -25.6°
Reaches altitude 10° 01:43:52 10° 258° (WSW) 2,477 7.6 -26.2°
Maximum altitude 01:47:46 19° 302° (WNW) 1,939 6.7 -27.1°
Drops below altitude 10° 01:51:42 10° 346° (NNW) 2,489 6.8 -27.9°
Sets 01:54:57 0° 4° (N) 3,430 7.4 -28.6°
